Regional Weather Roundup
Issued by NWS Upton, NY

Current Version | Previous Version | Graphics & Text | Print | Product List | Glossary Off
Versions: 1 2 3 4 5 6 7 8 9 10 11 12 13 14 15 16 17 18 19 20 21 22 23 24 25 26 27 28 29 30 31 32 33 34 35 36 37 38 39 40 41 42 43 44 45 46 47 48 49 50

000
ASUS41 KOKX 101405
RWROKX

REGIONAL WEATHER ROUNDUP
NATIONAL WEATHER SERVICE NEW YORK NY
1000 AM EDT THU JUL 10 2014

NOTE: "FAIR" INDICATES FEW OR NO CLOUDS BELOW 12,000 FEET WITH NO
SIGNIFICANT WEATHER AND/OR OBSTRUCTIONS TO VISIBILITY.

NYZ071-072-176-178-NJZ106-104-101500-
NEW YORK CITY METRO AREA


CITY           SKY/WX    TMP DP  RH WIND       PRES   REMARKS
CENTRAL PARK   PTSUNNY   74  63  68 VRB5      30.13R
LAGUARDIA APRT PTSUNNY   72  61  68 NE12G18   30.10R
KENNEDY INTL   CLOUDY    76  61  59 NE10      30.11R
NEWARK/LIBERTY PTSUNNY   76  63  64 NE7       30.10R
BRNX BOT. GARD   N/A     73  63  68 S3        30.11R
TETERBORO      PTSUNNY   77  61  57 N8        30.09R
$$

NYZ177-179-078>081-101500-
LONG ISLAND NEW YORK

CITY           SKY/WX    TMP DP  RH WIND       PRES   REMARKS
FARMINGDALE    CLOUDY    73  59  61 NE8       30.11R
ISLIP          CLOUDY    75  59  57 NE13      30.08R
SHIRLEY        PTSUNNY   74  60  61 N6        30.10R
WESTHAMPTON    PTSUNNY   75  61  61 NE6       30.11R
MONTAUK POINT    N/A     75  64  68 N7        30.11R
$$

NYZ052-065-067-101500-
HUDSON VALLEY

CITY           SKY/WX    TMP DP  RH WIND       PRES   REMARKS
WHITE PLAINS   PTSUNNY   73  60  63 NE6       30.11R
NEWBURGH       MOSUNNY   72  59  64 NE12      30.14R
MONTGOMERY     MOSUNNY   71  61  70 NE7       30.12S
POUGHKEEPSIE   MOSUNNY   72  58  61 N8        30.11S
ALBANY         MOSUNNY   71  54  54 N8        30.14S
$$

NJZ001-105-106-008-010-013-015-019>022-104-101500-
NEW JERSEY

CITY           SKY/WX    TMP DP  RH WIND       PRES   REMARKS
NEWARK/LIBERTY PTSUNNY   76  63  64 NE7       30.10R
TETERBORO      PTSUNNY   77  61  57 N8        30.09R
CALDWELL       PTSUNNY   73  64  73 E6        30.12R
MORRISTOWN     PTSUNNY   75  66  73 NE6       30.11R
SOMERVILLE     PTSUNNY   77  63  61 VRB3      30.09R
LINDEN         FAIR      78  62  58 E6        30.12R
SUSSEX         PTSUNNY   72  64  76 NE5       30.12R
ANDOVER          N/A     70  64  81 VRB3      30.13R
TRENTON        PTSUNNY   75  63  66 NE8       30.09R
MILLVILLE      CLOUDY    77  71  82 NE7       30.07R
ATLANTIC CITY  TSTM      72  71  97 NE8       30.09R FOG
WRIGHTSTOWN    CLOUDY    76  64  66 E8        30.08R
TOMS RIVER     CLOUDY    72  64  78 NE7       30.11R
BELMAR         CLOUDY    73  61  64 NE10G16   30.11R
$$

PAZ047>061-062-071-101500-
EASTERN PENNSYLVANIA

CITY           SKY/WX    TMP DP  RH WIND       PRES   REMARKS
PHILADELPHIA   CLOUDY    78  60  53 NE12      30.09R
ALLENTOWN      PTSUNNY   73  64  73 NE9       30.12R
SCRANTON       SUNNY     72  56  57 NE8       30.13S
$$

CTZ002-004>006-009-010-012-RIZ004-006-007-MAZ004-011-015-101500-
SOUTHERN NEW ENGLAND
 IN CT

CITY           SKY/WX    TMP DP  RH WIND       PRES   REMARKS
BRADLEY INTL   PTSUNNY   75  57  53 N5        30.10S
HARTFORD       MOSUNNY   74  56  53 NE8       30.10R
DANBURY        PTSUNNY   72  54  53 N8        30.13R
WTRBRY/OXFORD  PTSUNNY   70  55  60 NE8       30.14R
BRIDGEPORT     PTSUNNY   74  58  57 N9        30.10R
MERIDEN        MOSUNNY   74  55  51 N6        30.11R
NEW HAVEN      PTSUNNY   75  58  55 N8        30.10R
CHESTER        FAIR      72  61  68 NE7       30.12R
GROTON         PTSUNNY   75  59  57 N13       30.09R
WILLIMANTIC    MOSUNNY   74  56  53 N8        30.11R

 IN RI

CITY           SKY/WX    TMP DP  RH WIND       PRES   REMARKS
PROVIDENCE     PTSUNNY   77  54  44 N12       30.10R
BLOCK ISLAND   PTSUNNY   73  64  73 NE6       30.10R
WESTERLY       PTSUNNY   77  62  59 VRB6      30.10S

 IN MA

CITY           SKY/WX    TMP DP  RH WIND       PRES   REMARKS
BOSTON         PTSUNNY   77  51  40 NW10      30.08S
WORCESTER      SUNNY     70  53  54 NW9       30.12R
WESTFIELD      SUNNY     73  56  54 NE3       30.11S
PROVINCETOWN   MOSUNNY   73  63  68 W7        30.09R
NANTUCKET      CLOUDY    72  69  90 W5        30.08R
$$

ANZ330-335-338-340-345-350-353-355-101500-
COASTAL MARINE OBSERVATIONS


STATION/POSITION TIME  SKY/WX   TEMP    WIND        PRES    VSBY  WAVE
                                AIR SEA DIR/SP/G                  HT/PER
                 (UTC)          (F)     (DEG/KT/KT) (MB)    (MI)  (FT/S)
NY HARB ENTRANCE NOT AVBL
4S FIRE IS       1300               65                N/A           4/ 7
23SW MTP         1400            68 66              1018.5          4/ 7
HUDSON CANYON    1400            71 70  230/  8/ 10 1018.5          4/ 6
EXECUTION ROCKS  1400            70 67   80/  8/ 10   N/A
WESTERN LI SOUND 1400            69      80/  8/  8   N/A           0
CENTRAL LI SOUND 1300            70 69   60/  4/  6   N/A           0
EASTERN LI SOUND 1300            73 65   40/  6/  8   N/A
ROBBINS REEF     1400            72      60/  8/  8   N/A
$$


>>>>>>>>>>>>>>>>>>>>>>>>>>>> KEY <<<<<<<<<<<<<<<<<<<<<<<<<<<
>                                                          <
>     SKY/WX - SKY CONDITION/PRESENT WEATHER               <
>     TMP    - TEMPERATURE IN FAHRENHEIT                   <
>     DP     - DEWPOINT IN FAHRENHEIT                      <
>     RH     - RELATIVE HUMIDITY IN PERCENT                <
>     WIND   - DIRECTION AND SPEED IN MPH                  <
>     PRES   - MEAN SEA LEVEL PRESSURE IN INCHES OF HG     <
>     WCI    - WIND CHILL INDEX                            <
>     VSB    - VISIBILITY IN MILES                         <
>     HX     - HEAT INDEX                                  <
>     TC     - TEMPERATURE IN CELSIUS                      <
>     VRB    - VARIABLE WIND DIRECTION                     <
>                                                          <
>>>>>>>>>>>>>>>>>>>>>>>>>>>> KEY <<<<<<<<<<<<<<<<<<<<<<<<<<<




USA.gov is the U.S. government's official web portal to all federal, state and local government web resources and services.